This is the latest recevied weather packets stored in our database for station/object M0XDC-10. If no packets are shown the sender has not sent any weather packets the latest 10 day(s).
| Time | Temp. | Humidity | Pressure | Rain* | Wind** | Luminosity | Snow |
|---|---|---|---|---|---|---|---|
| 1777724976 | 26.67° C | 25% | 1016.1 hPa | - | - | - | - |
| 1777724126 | 26.67° C | 26% | 1016.2 hPa | - | - | - | - |
| 1777724075 | 26.67° C | 26% | 1016.2 hPa | - | - | - | - |
| 1777723175 | 26.67° C | 26% | 1016.5 hPa | - | - | - | - |
| 1777721427 | 26.11° C | 27% | 1016.9 hPa | - | - | - | - |
| 1777721384 | 26.11° C | 27% | 1016.9 hPa | - | - | - | - |
| 1777720565 | 26.11° C | 24% | 1017.1 hPa | - | - | - | - |
| 1777720484 | 26.11° C | 24% | 1017.1 hPa | - | - | - | - |
| 1777719584 | 26.67° C | 22% | 1017.3 hPa | - | - | - | - |
| 1777718732 | 26.67° C | 26% | 1017.4 hPa | - | - | - | - |
| 1777718683 | 26.67° C | 26% | 1017.4 hPa | - | - | - | - |
| 1777717826 | 26.67° C | 25% | 1017.5 hPa | - | - | - | - |
| 1777717782 | 26.67° C | 25% | 1017.5 hPa | - | - | - | - |
| 1777716930 | 26.67° C | 24% | 1017.5 hPa | - | - | - | - |
| 1777716881 | 26.67° C | 24% | 1017.5 hPa | - | - | - | - |
| 1777716023 | 25.56° C | 25% | 1017.6 hPa | - | - | - | - |
| 1777715981 | 25.56° C | 25% | 1017.6 hPa | - | - | - | - |
| 1777715115 | 25.56° C | 24% | 1017.8 hPa | - | - | - | - |
| 1777715081 | 25.56° C | 24% | 1017.8 hPa | - | - | - | - |
| 1777714211 | 25.56° C | 26% | 1018 hPa | - | - | - | - |
| 1777714180 | 25.56° C | 26% | 1018 hPa | - | - | - | - |
| 1777713312 | 25.56° C | 27% | 1018 hPa | - | - | - | - |
| 1777713280 | 25.56° C | 27% | 1018 hPa | - | - | - | - |
| 1777712380 | 26.11° C | 26% | 1018.2 hPa | - | - | - | - |
| 1777711479 | 26.67° C | 27% | 1018.4 hPa | - | - | - | - |
* Rain since midnight (hover to see other rain measurements)
** Current wind speed in m/s (hover to see current wind gust speed)